Theta_e
307 307 307 306 306 307 306 306 306 306 306 306 306 306 307 307 306 307 307 307 307 307 308 308 308 308 308 308 308 308 307 304 304 303 305 305 302 304 304 304 304 304 309 314 313 313 313 312 313 314 314 314 314 312 315 316 313 315 317 317 314 313 313 313 315 313 311 313 313 312 312 310 313 334 341 339 346 347 347 347 345 345 345 344 346 345 344 344
306 306 306 306 306 306 306 306 306 305 306 307 306 306 306 307 307 306 307 307 307 307 307 307 307 308 307 307 308 307 306 304 304 306 308 303 304 304 303 304 303 303 309 313 313 313 312 311 313 314 314 314 313 313 315 315 314 316 316 315 315 314 313 312 313 311 312 312 313 312 311 309 311 326 331 337 348 346 347 347 344 347 346 344 344 344 344 345
305 306 306 306 306 306 306 306 306 306 305 306 306 306 305 306 306 306 306 306 307 307 307 307 307 307 307 307 308 307 304 303 306 309 307 303 304 304 304 303 303 304 307 312 313 312 312 312 313 313 313 314 313 313 314 315 315 315 314 315 316 314 313 312 311 311 312 311 313 312 311 311 309 313 320 337 347 344 347 348 347 350 349 344 343 344 345 344
305 305 306 306 306 306 305 305 306 306 305 305 306 306 305 306 306 306 306 306 306 306 307 307 307 307 307 307 307 305 303 306 306 305 308 308 307 305 305 303 303 304 306 311 313 311 312 312 313 312 313 314 314 313 314 315 316 314 313 316 314 311 313 313 312 312 311 310 311 311 311 312 310 314 326 339 338 335 339 342 346 350 348 344 342 343 344 345
304 305 305 305 305 305 305 305 305 305 305 305 306 306 306 306 306 306 306 306 306 306 306 306 306 306 307 307 305 303 304 308 302 306 312 311 308 306 308 306 303 303 307 310 310 309 311 313 313 312 312 314 314 314 315 314 313 314 314 315 314 310 313 314 312 312 310 310 310 311 312 311 311 317 334 338 321 321 329 332 342 346 344 343 342 343 344 345
304 304 305 305 305 305 304 304 304 305 305 305 305 305 305 306 306 306 306 306 306 306 306 306 306 306 307 305 305 303 303 303 302 309 312 308 307 305 308 310 304 303 308 311 309 308 311 312 312 311 311 313 315 314 315 313 311 313 313 312 314 312 314 314 312 312 310 310 310 312 310 310 311 312 329 332 317 325 331 330 341 345 343 344 343 343 343 343
304 304 304 304 304 304 303 303 305 304 305 305 305 305 305 305 305 306 305 306 306 306 306 306 306 306 306 304 305 305 303 304 304 308 309 304 304 305 308 311 305 305 310 311 309 309 310 311 311 311 311 312 314 316 315 313 310 313 313 311 313 312 313 312 311 311 309 310 311 311 308 310 312 311 322 326 325 334 338 335 342 345 344 344 342 342 343 342
304 303 303 303 304 304 303 303 304 304 304 304 305 305 305 305 305 305 305 305 305 305 305 306 306 306 305 303 304 305 303 305 302 303 304 301 303 305 308 310 306 307 311 311 310 310 310 311 310 310 311 310 313 315 314 313 312 313 314 313 313 312 312 311 311 311 309 309 309 308 309 311 310 311 314 320 334 341 341 340 343 343 343 343 342 343 342 343
303 303 302 302 303 304 304 304 304 304 304 304 304 305 305 305 305 305 305 305 305 305 305 305 306 305 305 304 303 301 302 304 301 303 305 304 305 306 309 309 307 308 311 311 310 311 310 310 309 309 311 310 312 315 313 315 315 313 314 313 313 313 313 312 311 312 310 309 309 309 312 310 308 310 309 320 338 345 341 342 343 342 343 342 342 343 342 342
303 303 302 301 301 303 304 304 303 304 304 304 305 305 305 304 304 305 305 305 305 305 305 305 305 305 304 304 302 299 301 303 305 309 311 311 309 309 311 309 307 309 310 310 310 310 310 309 309 310 311 311 313 313 313 315 314 312 313 312 313 314 312 311 311 310 309 308 310 310 312 310 308 310 312 329 340 344 342 344 343 343 344 343 343 343 343 343
303 303 303 302 301 302 304 304 304 304 304 304 304 304 304 305 304 304 304 305 304 305 305 305 305 305 306 306 302 299 302 307 310 312 312 313 312 311 313 309 307 310 310 309 310 310 310 310 310 311 312 312 313 312 312 314 313 311 312 312 312 311 310 310 310 310 309 309 310 309 311 311 310 310 315 335 343 343 343 345 343 344 343 343 344 342 343 342
302 302 303 302 301 301 303 303 304 304 303 303 304 304 304 304 304 304 304 304 304 304 305 305 305 304 306 306 304 301 304 310 313 312 310 313 315 313 312 310 308 311 311 309 309 310 310 310 311 313 312 312 313 311 312 312 311 311 310 312 311 310 310 310 310 310 309 310 310 310 312 311 312 312 311 327 342 343 343 346 343 344 343 343 344 342 341 341
302 302 301 302 302 301 302 303 303 304 303 303 304 304 304 304 304 303 304 304 304 304 304 305 305 304 305 305 304 301 302 306 307 308 307 310 313 314 313 311 310 311 312 310 309 309 310 312 313 313 312 312 313 310 310 310 309 310 309 311 312 311 312 311 309 308 309 310 310 310 311 311 313 314 307 319 340 344 342 346 344 344 344 343 344 342 340 340
302 302 301 301 302 302 303 302 302 304 304 303 303 303 303 303 303 303 303 304 304 304 304 304 304 305 306 305 303 300 300 300 301 302 303 304 306 312 314 312 311 312 312 311 311 310 311 313 314 314 312 312 313 310 309 308 309 310 309 309 310 311 311 310 309 309 310 309 309 310 310 311 312 313 309 317 338 345 342 345 344 345 345 343 345 343 340 340
301 302 301 302 303 303 303 302 302 303 303 303 303 303 303 303 303 303 303 303 304 303 304 305 305 306 306 305 302 302 304 302 301 300 300 300 303 311 314 312 312 312 312 311 311 310 310 313 315 316 314 311 312 314 311 309 309 310 310 310 309 310 310 311 310 310 311 309 309 310 310 312 311 313 314 320 336 343 342 344 343 345 346 344 346 344 341 340
301 302 302 302 302 302 302 301 301 302 303 303 302 302 302 302 302 302 303 303 303 303 304 305 305 306 306 304 302 304 306 305 304 303 303 301 302 310 313 313 313 313 312 311 310 310 309 311 314 314 312 311 312 314 312 310 310 309 310 312 309 309 309 309 310 308 310 310 310 311 311 312 312 315 319 324 336 342 340 343 344 345 345 344 346 345 342 341
302 302 302 302 302 302 302 301 300 302 303 302 302 302 302 301 301 302 303 303 303 304 305 306 305 306 307 304 304 305 305 306 306 306 307 303 302 309 313 312 311 311 311 310 309 309 309 310 311 312 311 310 310 312 313 312 311 310 310 311 309 309 309 308 310 309 308 310 311 312 312 315 318 321 322 323 333 340 339 342 343 344 344 344 345 344 343 341
302 302 302 302 302 302 302 301 302 302 302 302 302 301 300 301 303 303 304 303 303 304 306 308 306 306 308 305 305 305 304 305 306 306 308 305 304 309 312 310 309 310 310 309 309 309 309 310 310 313 313 310 309 312 315 313 312 311 311 311 310 309 309 309 311 310 310 312 311 311 313 319 324 326 326 324 329 335 336 339 342 342 344 344 344 343 342 341
301 302 302 302 302 301 302 301 301 302 301 302 302 300 300 304 304 303 304 305 304 302 303 307 306 303 303 304 304 305 305 305 307 307 307 306 306 309 310 309 309 309 309 309 309 309 310 310 311 314 315 312 310 312 314 313 311 311 311 311 310 309 309 310 310 309 310 312 312 315 319 324 327 327 328 328 328 331 332 335 340 341 342 344 344 343 342 341
301 302 301 301 301 301 301 301 301 302 302 301 301 300 300 306 308 306 305 305 305 303 302 305 306 304 302 303 305 305 305 306 307 308 308 307 308 309 308 308 309 308 308 309 309 309 310 312 314 315 314 311 310 312 313 311 310 310 310 310 310 309 310 310 311 309 309 311 314 320 325 326 328 328 329 329 329 330 330 332 335 337 340 342 342 343 342 341
301 301 301 301 301 301 301 301 301 302 302 301 301 300 299 303 308 307 305 305 305 306 304 304 306 306 304 304 306 305 304 306 307 308 308 308 309 310 309 308 309 308 308 309 309 310 311 314 315 313 312 311 311 314 315 312 310 311 310 310 310 309 310 310 310 309 309 315 319 324 328 327 328 329 328 329 330 329 329 330 332 333 335 338 341 341 339 338
301 301 301 301 301 301 301 301 301 301 301 301 300 300 300 300 302 303 304 305 305 305 305 304 304 305 305 305 305 304 303 305 307 307 308 309 309 311 310 309 309 309 308 309 311 312 313 315 314 311 310 311 311 312 315 315 314 313 310 310 310 309 310 310 310 310 310 318 323 326 330 329 328 328 328 329 330 330 329 330 330 331 332 333 336 337 336 337
301 301 300 300 301 301 301 301 301 301 300 300 300 300 300 300 301 302 303 305 306 305 304 304 304 303 304 304 304 303 302 303 305 307 308 309 309 311 311 310 311 310 309 309 311 313 314 315 312 308 309 311 311 311 315 316 314 314 311 309 310 309 310 310 310 311 311 317 325 328 330 329 328 329 329 328 329 330 330 329 330 331 331 331 331 331 333 334
301 301 300 300 301 301 301 300 300 300 300 300 301 300 300 301 303 303 304 306 306 306 304 305 305 304 304 305 304 303 303 304 305 306 309 310 309 310 311 311 311 311 310 310 311 313 314 313 309 307 308 311 312 312 314 313 311 313 313 310 310 310 310 310 310 312 315 320 323 324 326 327 329 331 330 328 328 329 329 329 330 331 331 331 330 330 331 331
301 301 301 300 300 301 300 300 300 301 301 300 301 301 302 302 302 302 304 307 309 307 305 305 305 305 305 305 305 304 304 305 306 307 309 310 310 311 311 311 312 312 310 310 312 314 313 310 308 307 309 310 310 311 312 312 311 312 313 311 310 311 311 311 311 314 319 322 317 314 319 325 328 330 331 329 328 329 329 330 331 331 331 331 331 331 332 332
301 301 300 300 300 300 299 300 301 300 300 300 301 302 303 302 301 302 304 308 310 308 306 306 306 307 307 305 305 306 306 307 308 308 309 310 311 311 311 310 312 312 310 310 313 314 311 308 308 309 309 309 310 310 310 312 312 311 312 312 310 311 311 311 312 313 316 318 313 310 317 325 327 330 331 329 329 329 329 331 331 331 332 332 332 332 332 333
300 300 300 300 300 299 300 301 301 300 300 301 302 302 302 301 301 302 306 308 309 307 306 305 305 306 307 306 306 307 307 308 309 309 309 311 311 311 312 311 311 311 309 311 314 313 310 308 309 310 309 309 310 310 309 310 311 311 313 312 309 310 311 311 313 312 313 314 312 312 317 324 327 329 329 329 330 330 330 331 332 331 331 332 332 332 332 331
300 300 300 299 299 299 300 300 300 299 300 301 301 301 300 300 302 305 307 308 308 307 307 306 305 306 307 307 307 307 308 309 310 309 309 311 311 310 312 311 312 311 309 312 315 313 311 310 310 310 310 310 310 311 310 309 310 311 311 310 309 311 311 312 312 313 315 313 312 313 315 321 327 328 328 329 330 331 332 332 332 332 331 332 332 332 331 330
300 300 299 299 299 299 299 299 300 300 299 300 300 300 300 301 304 307 308 310 310 309 307 307 306 306 307 307 308 308 309 309 309 309 309 311 311 310 311 311 312 312 310 312 314 312 311 311 310 310 311 311 311 311 309 308 310 309 308 309 310 311 311 313 313 313 315 314 312 313 313 319 326 328 330 331 331 332 333 333 333 332 331 331 331 330 330 329
300 300 299 299 300 300 299 299 299 299 298 300 300 300 301 304 307 307 308 310 312 309 306 306 306 307 308 308 308 308 310 308 307 308 308 310 310 309 309 309 310 311 311 311 313 311 310 311 311 310 312 312 310 309 307 308 309 308 309 310 311 312 312 313 314 313 314 312 313 316 316 318 324 328 331 332 332 332 332 334 333 330 328 328 328 327 326 327
299 299 299 299 299 299 299 300 300 300 300 300 300 300 304 308 309 309 310 310 310 311 307 304 306 308 309 309 308 309 309 308 307 308 309 310 310 308 309 310 310 312 312 312 312 311 310 311 311 311 312 310 309 308 306 307 308 309 312 312 311 313 313 313 314 313 313 313 316 317 316 318 326 329 330 331 331 330 331 333 331 328 327 325 324 324 323 323
299 299 299 299 299 299 300 300 301 301 301 300 300 302 308 310 309 309 311 311 312 314 311 308 308 309 310 309 308 309 309 308 307 309 310 310 310 310 311 312 312 313 314 313 313 312 311 311 310 310 311 310 309 309 307 307 308 310 312 312 311 313 314 314 313 313 313 313 315 315 316 325 333 331 329 330 331 330 330 330 328 326 326 324 323 322 321 321
298 299 299 298 299 299 299 300 299 300 300 300 301 305 309 310 309 308 307 309 313 314 313 312 310 309 310 309 308 309 308 307 307 308 308 309 311 310 309 310 312 314 315 314 313 312 312 312 310 309 310 311 311 310 309 308 308 310 311 311 311 313 315 314 313 313 313 313 315 316 320 331 334 331 330 330 330 330 328 327 325 324 323 322 321 321 320 319
299 298 298 298 298 299 299 299 299 300 299 300 304 307 308 308 309 310 309 309 314 315 313 313 311 309 310 308 308 309 308 307 307 308 308 308 310 311 309 308 310 313 314 313 313 313 313 313 311 310 311 311 312 311 310 309 309 310 311 311 312 313 314 314 313 314 314 315 317 319 322 330 333 332 330 330 329 328 326 325 324 322 321 321 319 318 318 317
298 298 298 299 300 300 300 299 300 300 299 302 306 307 308 308 308 312 313 312 314 315 313 313 312 310 309 308 308 308 308 308 307 307 308 309 310 311 311 309 309 311 313 313 312 312 312 313 312 310 310 311 311 311 309 309 310 309 309 311 312 313 316 314 312 314 318 318 320 323 326 329 331 330 328 330 328 326 325 324 322 322 320 319 318 317 316 316
298 299 300 301 301 301 301 300 301 300 300 304 308 307 308 308 308 312 314 312 313 313 312 312 311 309 309 308 307 308 309 308 308 308 308 308 309 309 310 310 309 310 312 314 314 312 311 312 311 309 309 310 311 311 309 310 312 310 309 311 311 311 316 316 311 313 317 318 321 324 330 331 330 330 329 330 328 325 325 323 321 320 319 317 316 315 315 314
299 300 301 302 303 303 302 301 301 300 301 305 308 309 307 305 308 312 312 312 312 312 311 311 310 308 308 308 308 308 309 310 309 308 308 308 309 309 309 309 309 309 311 314 314 312 312 313 311 310 310 310 310 310 309 310 311 310 311 311 310 310 314 315 314 314 316 321 323 325 331 333 330 331 331 331 329 327 324 321 320 319 317 316 315 314 313 312
300 301 303 304 304 305 303 301 300 301 305 307 307 309 307 305 309 310 309 310 310 310 311 310 310 308 308 309 309 308 309 311 309 308 308 309 309 309 308 309 309 309 310 312 313 313 314 315 311 311 311 309 309 310 310 309 309 310 311 310 310 313 312 312 315 315 316 323 326 327 329 330 329 329 331 332 331 328 324 321 319 317 316 315 314 313 312 311
301 302 305 305 304 305 303 301 301 303 307 308 307 308 307 308 308 306 307 308 308 310 311 309 308 308 308 309 309 307 309 311 309 308 308 309 310 310 310 311 310 309 310 310 312 313 315 318 314 310 310 309 309 312 312 311 309 310 311 310 311 314 313 312 314 314 317 323 327 330 329 328 328 327 328 332 330 327 323 320 318 316 314 314 313 312 311 310
301 304 307 305 303 304 301 301 304 307 308 307 307 307 306 307 306 304 306 307 307 309 309 308 308 308 309 309 308 308 309 309 308 309 310 311 312 311 313 316 312 308 309 309 311 314 316 319 317 310 309 310 311 313 313 312 311 310 311 312 312 312 311 312 312 312 318 322 326 329 328 327 326 325 327 331 329 324 321 318 316 314 313 312 311 310 310 309
301 306 308 305 303 302 302 304 307 309 310 308 307 306 305 305 305 305 305 305 307 308 307 308 307 308 310 310 309 309 311 311 313 315 314 313 313 313 314 319 316 308 308 309 311 315 317 318 319 315 313 314 316 315 313 312 312 313 313 312 313 313 311 312 312 313 317 321 323 327 327 325 325 325 328 330 326 321 318 316 314 313 312 311 310 309 309 308
303 308 308 304 303 302 303 306 307 308 310 309 306 305 306 306 306 306 305 305 308 309 307 306 306 306 310 310 310 313 316 318 319 319 317 315 318 318 316 320 320 311 309 311 312 317 322 321 320 318 317 316 316 315 314 314 314 315 315 313 312 314 314 313 313 315 316 319 321 322 322 325 325 324 326 325 321 318 316 314 313 312 311 310 309 309 308 307
305 308 306 303 303 303 304 305 306 307 309 308 306 304 304 305 305 306 306 305 307 307 306 306 306 308 310 311 313 317 320 320 318 318 320 320 320 319 317 320 318 310 311 315 313 318 323 321 319 319 317 315 314 313 315 316 316 317 318 316 315 315 315 316 316 318 318 319 321 319 318 326 325 320 319 319 318 316 314 313 312 311 310 309 308 307 307 307
304 306 306 304 303 304 305 305 306 307 308 307 307 306 306 306 304 303 304 305 306 307 308 309 309 310 312 313 316 317 318 320 318 318 321 321 320 318 318 320 317 313 317 317 314 316 316 315 319 320 318 318 317 315 316 317 319 320 319 317 315 313 315 318 318 318 320 320 320 316 317 325 324 318 316 315 314 313 313 312 311 310 309 308 307 306 306 306
303 306 307 305 303 305 307 306 306 309 309 308 310 311 310 310 308 304 303 304 305 307 312 312 308 309 313 316 318 318 318 321 321 318 319 320 320 318 317 320 323 324 325 321 319 320 318 315 318 319 319 318 318 319 318 318 320 319 317 317 317 315 317 320 317 315 317 319 318 316 321 325 322 318 316 315 313 312 311 310 309 308 308 307 306 306 305 304
303 306 307 306 305 305 307 307 308 311 311 310 314 314 312 314 315 310 306 306 305 307 313 313 308 310 314 317 321 320 318 321 321 320 321 321 321 317 316 321 324 325 325 323 322 322 319 314 316 320 322 318 317 319 319 319 322 322 319 319 319 316 317 319 316 314 317 319 319 320 324 325 323 320 318 315 313 312 310 309 308 307 307 306 305 305 304 303
304 306 306 306 306 306 307 307 308 310 310 310 314 315 314 315 315 312 309 308 307 307 310 311 310 312 315 318 323 321 318 320 321 321 322 321 320 318 317 320 322 323 324 322 320 320 320 317 316 318 319 318 317 317 317 317 320 321 320 319 319 318 321 323 320 318 318 318 320 322 324 326 325 320 317 315 312 310 309 308 307 306 306 305 304 304 303 303
305 307 308 307 308 308 308 308 309 310 310 311 313 313 314 314 314 314 311 309 310 308 310 314 311 310 313 317 322 322 319 320 321 321 321 320 320 321 319 318 319 321 322 319 317 320 321 318 316 317 317 316 316 316 316 316 316 317 318 319 318 319 323 326 323 320 321 321 321 323 324 325 323 317 314 312 309 308 307 306 306 305 305 304 303 303 303 302
305 307 307 308 309 309 308 309 309 310 311 312 313 313 314 314 316 316 309 310 315 312 311 315 312 309 312 316 321 322 320 321 321 320 321 322 322 323 321 319 318 317 320 321 319 317 318 317 315 316 317 316 315 315 316 316 316 316 316 317 317 318 319 320 319 318 321 324 323 322 321 319 316 313 310 308 307 306 305 305 305 304 304 303 303 302 302 302
305 307 307 308 310 309 309 310 310 310 310 311 313 314 313 314 317 316 309 310 316 315 312 313 310 308 310 312 316 318 317 320 323 321 322 324 323 323 322 320 318 318 320 323 322 318 317 318 316 316 318 317 316 315 316 316 316 316 316 315 316 317 317 318 318 318 320 322 320 317 317 314 310 309 308 306 306 305 304 304 303 303 303 303 302 302 302 301
304 305 306 309 311 311 311 311 309 310 311 311 314 315 313 312 313 314 311 307 310 314 313 312 311 310 310 311 314 313 311 316 322 319 319 321 319 318 318 317 317 322 324 324 324 324 321 317 315 317 320 320 316 315 316 316 316 317 317 316 316 317 318 317 316 316 318 320 318 317 317 313 309 307 306 305 304 304 304 303 302 302 302 302 302 301 301 301
302 303 304 308 311 311 311 310 308 309 311 312 315 315 313 312 310 312 315 310 308 310 311 311 312 312 312 313 314 311 309 312 314 313 313 314 312 312 314 313 314 320 326 324 321 322 321 318 317 318 322 321 317 316 317 318 319 320 317 315 316 316 316 316 315 315 316 317 317 317 315 310 307 306 305 304 304 303 303 303 302 301 301 301 301 300 300 300
Wind_Speed
13 13 14 14 13 13 13 13 13 14 13 12 12 13 12 12 12 12 12 12 13 13 13 13 14 14 14 15 15 15 18 18 18 16 13 20 17 12 13 9 4 8 11 11 16 15 11 9 9 9 8 4 1 3 4 1 2 2 2 3 3 3 3 4 5 3 0 3 4 6 7 5 5 3 2 1 6 8 6 6 6 7 7 6 10 17 21 20
13 13 13 13 13 13 13 13 13 14 14 13 12 12 13 12 12 12 12 12 13 13 13 13 13 14 14 15 15 16 18 17 15 15 24 26 19 18 18 15 10 10 15 15 19 18 11 7 7 9 5 3 1 2 4 2 3 3 2 3 5 4 2 2 2 2 1 4 7 9 5 3 5 1 0 0 5 5 5 5 5 9 10 10 14 18 20 21
14 14 14 13 13 13 13 13 13 13 13 13 12 12 12 12 12 12 12 12 12 13 13 13 13 13 14 14 15 17 17 13 8 13 22 20 18 21 22 21 16 13 17 16 20 19 15 12 12 9 3 2 2 2 4 3 3 3 2 4 5 3 3 3 3 4 4 4 7 8 5 4 5 1 2 2 6 5 4 4 5 7 9 12 14 17 20 20
14 14 14 13 13 14 14 14 13 12 13 14 13 12 12 12 12 12 12 12 12 13 13 12 13 13 14 14 14 16 13 7 4 6 6 3 4 8 15 23 20 16 17 16 17 18 16 16 12 7 3 2 1 2 5 4 3 3 3 5 2 2 4 4 4 6 3 2 3 5 6 6 4 1 3 5 6 2 3 2 4 10 13 14 14 16 19 19
14 14 14 14 14 14 15 15 14 13 13 13 13 12 12 12 11 12 12 12 12 12 13 12 13 13 13 14 13 13 7 3 1 2 4 6 7 9 4 16 21 19 18 18 15 15 15 14 8 4 2 3 4 3 5 5 3 3 4 4 3 2 4 4 2 3 1 1 1 4 7 6 4 2 2 3 2 2 0 1 6 14 16 16 17 17 17 17
14 15 14 14 14 15 15 15 15 14 13 13 13 12 12 12 11 11 11 12 12 12 12 12 12 12 13 13 10 6 3 3 3 4 4 5 11 13 8 9 20 21 22 21 17 16 13 10 8 6 4 3 7 6 4 5 4 4 3 2 5 5 5 4 1 2 1 1 3 4 4 3 5 3 0 2 1 0 3 3 9 15 16 16 17 17 16 15
14 15 15 15 15 16 16 16 14 14 14 13 13 12 12 12 12 12 11 11 12 11 11 11 11 12 13 11 4 1 1 7 11 7 4 14 18 16 8 8 20 25 26 22 17 13 11 10 9 5 6 4 6 8 4 4 4 5 4 2 5 5 7 5 3 4 1 4 5 3 3 1 3 2 0 1 2 1 2 4 10 14 15 15 15 15 15 14
14 15 16 16 16 16 16 15 14 13 14 13 13 12 12 12 12 12 11 11 11 11 11 10 10 11 12 8 1 1 1 13 25 18 16 22 22 16 6 11 23 28 27 25 19 14 11 12 11 5 6 5 5 8 5 5 5 6 6 3 3 4 5 3 5 6 3 4 5 4 3 2 4 1 0 1 4 2 4 9 12 13 14 13 14 14 13 12
14 15 16 18 17 15 13 14 14 14 13 13 13 12 12 12 12 12 11 11 11 10 10 9 9 9 10 6 1 2 5 15 21 18 19 19 16 13 8 13 26 29 23 23 21 16 11 11 11 7 6 5 6 8 6 6 5 7 8 3 5 5 2 2 5 5 2 2 3 5 3 3 2 2 2 3 4 5 8 10 12 13 13 12 11 12 13 12
14 15 16 18 20 17 13 13 14 15 13 12 13 13 12 12 12 12 11 11 10 10 9 8 8 7 7 3 2 4 6 8 11 10 10 10 8 9 13 15 28 29 18 17 18 16 11 10 9 5 3 4 5 6 6 7 3 5 8 5 9 7 3 2 5 5 3 4 5 7 4 3 2 3 1 3 4 8 10 11 11 11 11 10 10 10 12 12
15 16 16 17 19 19 15 13 13 14 14 13 13 13 13 12 13 12 11 11 10 10 9 7 7 5 4 1 3 5 3 4 4 2 6 5 5 11 16 20 30 28 18 13 16 19 11 8 10 3 2 5 6 5 4 6 2 4 6 4 7 5 3 5 6 5 2 4 4 5 4 1 2 2 2 5 7 8 11 13 11 10 8 8 10 10 10 11
17 17 17 16 17 17 17 15 13 13 14 14 14 14 14 14 13 12 12 11 10 10 8 7 6 3 3 2 7 13 7 1 1 4 8 6 3 9 12 22 30 28 24 15 14 18 10 12 14 3 1 6 7 4 3 5 3 3 4 3 3 1 4 6 4 3 2 2 3 5 4 1 1 2 3 6 8 8 9 11 11 10 7 8 10 9 8 9
18 17 17 17 16 15 16 16 15 13 13 14 15 14 14 14 14 13 12 11 10 9 7 6 5 4 3 3 11 17 14 12 9 8 6 2 2 4 7 20 25 22 24 18 14 16 10 15 14 3 2 5 4 2 2 4 3 3 3 2 2 1 3 3 1 1 3 2 2 5 3 0 2 1 3 2 8 10 9 9 9 8 7 8 9 7 7 9
18 17 17 17 16 14 13 15 15 14 13 14 16 16 15 15 15 14 13 12 10 8 7 5 4 5 4 7 14 14 13 18 18 21 22 15 8 6 6 18 19 12 14 11 13 16 10 11 9 3 2 2 2 1 2 3 1 3 4 1 1 2 2 0 1 3 4 1 1 5 3 1 2 7 9 2 6 8 8 9 9 7 7 8 8 7 7 8
17 17 17 16 15 14 13 14 16 15 14 15 15 16 17 17 17 16 14 12 9 7 6 4 5 4 3 10 15 9 8 14 20 26 26 17 11 8 8 17 16 9 8 6 8 14 10 6 5 4 2 0 1 1 1 2 1 2 4 3 1 2 2 2 1 4 3 2 1 4 2 2 6 11 10 3 3 2 3 5 5 5 6 7 8 7 7 7
17 16 16 15 14 14 14 15 17 16 15 16 17 17 18 19 19 18 15 13 9 6 4 3 7 6 3 6 5 2 5 9 15 19 19 18 14 10 11 14 12 9 7 4 5 7 8 5 3 2 2 1 2 2 2 2 1 1 2 3 3 4 2 1 2 1 2 2 2 2 1 3 5 9 11 7 2 1 2 2 2 3 4 6 6 5 6 6
15 15 15 14 13 14 14 14 16 16 15 16 17 19 21 19 17 16 12 9 7 8 6 3 6 6 5 6 3 4 6 9 11 8 11 20 18 14 14 9 6 7 5 4 3 4 6 5 2 1 1 1 2 4 5 5 4 2 1 2 2 3 2 1 2 1 1 2 3 2 2 5 5 8 11 10 3 2 2 3 4 3 4 5 5 5 6 6
14 15 14 13 13 14 14 14 15 15 16 17 18 21 18 11 5 3 7 10 8 8 5 2 4 5 5 6 5 3 3 4 7 6 8 15 18 18 15 7 6 10 7 4 3 4 5 3 1 3 3 3 3 6 6 4 5 5 4 4 2 1 1 1 2 1 1 1 3 3 3 6 8 9 11 11 7 4 4 2 4 5 5 5 5 7 6 5
14 15 14 14 15 15 14 15 15 15 15 17 19 17 7 4 6 8 11 12 8 5 3 5 7 2 2 3 3 4 8 7 5 6 10 14 17 16 12 9 9 10 8 5 4 5 5 3 3 6 6 5 6 7 7 4 6 7 5 5 4 4 2 1 1 1 1 4 5 5 6 7 10 11 11 10 9 8 8 5 2 4 5 6 5 6 5 6
14 14 15 16 15 15 15 14 15 16 14 15 18 13 0 4 3 5 6 7 7 4 1 6 11 5 4 1 2 10 9 3 2 4 13 18 19 15 8 8 7 6 7 8 7 4 4 6 7 7 7 8 7 7 6 4 5 6 5 4 4 3 2 2 1 2 1 4 5 6 10 10 10 11 10 8 10 12 11 8 6 3 1 4 4 3 3 4
13 14 14 15 14 14 14 14 15 15 14 15 15 7 1 2 1 2 2 7 12 12 9 7 13 11 8 3 4 11 8 2 2 2 14 19 19 15 7 7 8 6 5 6 7 4 4 7 7 6 7 8 7 6 7 6 5 5 5 4 3 2 2 1 2 2 1 4 3 5 12 11 8 9 10 9 11 13 11 9 8 6 4 1 1 0 3 4
13 13 14 14 14 14 14 15 15 15 16 16 11 5 4 2 3 3 1 5 10 15 16 11 11 14 15 12 8 5 4 5 5 1 12 17 14 11 6 7 9 6 5 5 6 5 6 7 6 6 6 6 5 5 7 7 4 3 3 3 3 2 1 1 3 3 1 5 4 5 11 9 6 9 12 12 12 10 10 9 9 8 7 5 4 3 2 1
12 13 14 14 14 14 14 14 17 18 16 12 7 7 4 5 3 5 2 3 6 9 12 12 12 13 13 12 10 5 3 5 4 2 11 17 9 7 9 8 8 7 7 9 9 8 6 6 7 7 7 8 6 4 7 6 2 2 2 3 3 2 2 2 2 2 3 4 7 9 10 7 5 8 11 12 11 10 10 10 10 10 9 8 7 7 6 5
13 12 13 14 13 13 13 16 18 14 9 7 10 10 5 2 4 7 1 3 5 5 9 12 11 10 11 9 9 12 8 6 5 3 12 17 7 6 9 8 8 7 7 10 11 9 6 5 8 8 6 8 8 6 7 6 3 1 3 4 4 3 3 2 3 1 4 4 4 7 8 5 6 7 9 10 9 10 10 10 11 11 10 10 10 9 8 7
13 13 13 13 13 14 15 17 12 5 5 8 10 6 3 2 6 3 2 2 4 3 5 9 7 7 11 9 10 12 6 6 7 5 10 15 10 7 6 4 6 7 8 10 11 9 5 6 10 10 6 7 9 7 6 7 5 2 4 5 5 5 4 3 5 5 5 4 2 1 3 3 5 7 9 8 8 11 10 11 13 11 11 11 11 11 9 8
14 13 13 13 12 14 14 9 3 4 9 8 5 2 2 6 8 3 3 2 3 2 4 6 5 9 12 10 11 9 5 5 8 9 11 14 11 6 6 3 1 6 9 8 7 4 3 6 9 10 9 8 8 6 5 6 6 4 4 6 5 4 4 4 5 5 4 5 2 1 1 3 2 4 8 8 9 11 10 12 13 11 12 11 11 10 9 10
14 13 13 13 12 12 9 5 5 9 8 3 3 4 4 13 8 6 3 2 3 1 4 2 3 11 12 10 14 10 4 3 5 8 10 14 10 3 7 7 3 5 5 5 5 2 5 7 6 8 10 8 7 6 6 6 7 3 3 7 7 5 6 5 5 3 2 3 3 2 0 4 4 2 7 6 8 11 11 13 13 12 12 11 12 11 11 11
14 13 13 13 11 10 10 11 12 10 6 3 3 5 12 16 3 6 2 2 2 0 4 2 2 8 7 10 16 9 2 5 7 7 11 16 10 1 6 10 7 9 5 5 7 3 5 8 8 10 8 5 5 5 7 9 6 2 3 6 6 5 4 3 3 3 1 3 5 3 2 2 3 2 4 5 8 11 11 12 13 12 12 11 12 12 11 11
14 13 13 12 12 12 13 14 13 11 9 6 7 13 17 9 4 3 1 1 3 2 3 5 4 6 5 9 13 6 1 3 3 5 9 12 8 1 4 6 8 11 5 4 6 3 3 8 10 11 7 6 6 5 10 12 5 2 6 7 4 3 3 2 2 3 2 4 5 2 2 2 3 1 3 4 6 7 7 8 11 11 11 11 11 11 11 10
15 14 13 13 13 13 12 13 17 16 11 8 11 17 12 2 4 2 1 1 2 1 2 3 3 6 10 11 9 6 3 1 2 7 7 6 4 1 3 3 5 8 3 0 4 2 1 3 5 6 5 6 5 4 6 8 5 6 8 6 5 3 2 1 1 1 3 4 3 1 3 1 3 0 2 3 4 3 3 6 9 10 11 11 10 10 10 9
16 15 15 15 14 13 10 10 10 5 3 7 15 14 3 3 1 1 3 2 1 2 2 2 3 8 13 12 8 6 3 2 6 11 8 5 5 3 4 4 3 5 4 3 4 1 2 4 3 3 3 4 7 5 2 2 4 5 4 5 5 3 1 2 1 1 4 4 2 1 3 2 2 1 1 3 4 2 3 7 9 10 10 10 10 9 9 9
17 16 16 16 16 15 13 10 5 2 5 13 15 6 3 2 1 3 2 1 0 2 4 2 3 7 10 8 7 9 6 4 7 12 11 9 7 5 5 6 5 6 6 6 5 2 2 4 2 1 2 4 8 7 3 2 3 3 3 7 7 4 3 3 2 3 3 2 1 1 2 1 3 3 4 5 4 4 6 8 9 9 10 10 9 9 8 9
19 18 19 20 20 21 22 21 18 16 16 15 8 2 2 2 3 5 5 3 0 2 4 5 3 6 10 6 6 9 6 4 6 10 10 8 8 6 2 2 5 5 4 5 5 4 4 2 2 3 3 4 8 8 5 4 5 5 5 8 8 5 5 5 3 2 1 2 1 2 2 3 5 4 5 5 5 8 9 9 9 10 10 9 9 9 8 10
19 21 23 24 23 24 25 24 22 19 13 8 2 2 3 3 3 3 3 2 2 3 4 6 7 3 10 6 6 10 4 2 6 9 9 8 8 7 3 3 4 3 3 5 3 5 7 4 6 8 4 6 10 7 7 8 6 4 2 3 5 4 4 4 3 3 3 3 2 2 0 3 5 5 5 7 8 10 10 9 9 10 8 7 8 9 10 10
21 23 24 23 21 21 19 17 15 11 5 2 1 3 4 4 2 1 0 2 3 4 6 8 9 4 9 4 5 11 4 1 6 7 7 9 7 6 6 6 5 2 4 6 2 3 6 3 4 4 2 9 11 5 6 10 6 3 1 1 4 4 3 3 1 1 3 3 2 3 2 2 4 5 5 7 10 9 9 9 9 9 8 8 9 10 9 9
22 23 19 16 15 13 10 9 11 11 6 2 2 4 4 3 1 0 0 2 2 4 10 11 6 5 8 3 7 11 2 2 7 5 4 7 6 6 6 5 5 4 5 6 2 2 4 3 2 2 2 6 9 7 6 6 5 3 3 4 2 2 4 5 2 2 1 3 2 1 2 4 3 4 6 8 11 10 9 9 9 9 9 9 9 8 8 8
21 18 13 12 13 10 5 8 15 13 5 1 3 5 3 2 2 2 1 4 3 3 7 6 2 3 5 3 7 11 5 4 4 3 4 5 3 5 5 3 4 6 6 4 1 2 3 3 1 2 5 2 2 7 5 0 3 5 6 6 4 2 3 3 3 2 1 3 2 0 4 6 4 4 7 10 11 10 9 10 9 9 9 9 8 7 8 8
19 14 11 12 10 7 6 14 19 12 3 2 4 4 2 3 3 4 2 5 5 5 5 3 3 2 3 4 4 8 8 6 3 3 5 3 2 4 6 4 4 7 8 4 1 1 2 3 1 2 3 3 2 6 6 2 1 2 6 6 3 2 3 1 2 3 3 3 3 2 4 6 5 4 8 11 11 11 10 10 8 8 8 7 7 8 9 9
14 7 5 4 3 4 11 19 16 6 1 3 4 3 2 3 2 3 1 5 6 5 6 6 5 2 1 3 4 5 5 7 6 3 3 3 1 2 4 3 4 7 7 4 2 1 0 2 2 1 0 3 3 3 5 5 2 3 6 5 0 1 3 2 1 2 4 4 3 4 3 5 4 4 9 12 11 11 11 10 7 7 7 7 7 7 8 9
7 3 1 2 1 7 16 17 8 2 2 3 2 2 2 2 1 2 4 7 5 4 6 6 5 2 2 2 4 3 3 6 7 3 1 2 2 1 2 1 4 6 3 1 1 1 1 1 2 1 0 3 4 2 4 7 6 5 7 5 2 2 2 2 2 2 2 5 5 5 3 3 1 2 8 12 12 11 12 11 8 6 7 7 8 7 7 7
3 2 1 2 5 14 16 8 2 2 2 1 1 2 2 1 1 3 7 8 5 5 8 10 9 5 3 2 4 3 3 4 4 2 1 2 1 1 1 1 3 6 4 2 2 2 0 1 2 2 2 2 1 1 2 2 4 5 6 5 4 4 4 5 3 1 2 3 4 5 4 2 2 1 5 9 11 12 13 12 9 7 7 8 8 7 8 8
3 1 1 4 12 16 9 2 1 1 1 1 2 2 1 0 1 3 6 7 5 5 7 10 10 7 4 3 3 3 3 2 1 1 2 2 2 1 2 2 2 4 5 3 1 2 1 2 3 3 3 1 1 2 1 1 3 5 3 2 3 3 4 6 5 4 2 2 3 2 2 3 3 3 6 10 10 11 13 12 10 7 7 8 7 7 8 8
2 0 2 7 15 9 1 1 2 0 2 1 2 2 1 2 1 2 4 6 5 5 5 6 6 5 4 3 2 3 4 3 2 1 2 2 2 1 1 2 3 4 4 2 1 2 1 2 4 4 3 2 2 2 2 3 4 5 5 3 1 1 2 2 3 5 4 4 4 3 2 3 4 5 9 11 11 12 11 10 9 8 7 7 7 7 8 8
2 2 2 8 11 1 3 3 2 1 3 1 2 2 2 2 2 4 7 7 6 4 3 3 3 4 4 2 3 3 3 2 2 1 2 1 2 1 1 2 5 4 2 2 3 3 1 1 2 4 4 4 3 3 2 2 3 3 3 3 2 2 5 5 4 4 3 3 3 4 3 3 5 7 9 12 13 13 11 10 8 7 7 7 6 7 7 8
2 1 3 4 6 3 2 1 0 1 2 1 1 2 3 2 4 7 9 8 7 3 1 3 3 2 2 2 4 3 2 2 1 1 1 1 1 2 2 1 3 1 1 2 4 4 2 1 1 3 5 4 4 4 3 2 2 2 2 3 4 3 3 4 4 4 4 4 2 3 4 5 7 9 10 11 12 12 11 10 8 7 7 7 7 7 7 7
2 1 2 2 4 3 2 2 1 2 2 1 1 2 3 3 3 6 7 7 7 4 2 4 4 1 1 3 5 4 4 3 2 3 2 1 2 1 2 2 3 5 8 9 7 5 4 4 4 4 4 3 3 2 1 1 3 3 2 4 4 3 2 1 4 4 5 6 3 2 6 11 11 10 10 10 11 11 10 9 8 8 8 8 8 7 7 7
1 0 2 2 2 2 3 3 3 1 1 2 2 1 3 3 4 3 4 4 4 4 4 4 2 1 2 4 5 3 3 3 4 5 3 0 2 1 2 3 4 5 8 8 5 3 5 4 6 9 9 6 5 4 4 4 5 5 4 4 4 3 2 1 4 3 6 7 4 3 10 15 13 12 11 11 10 10 9 8 8 7 8 9 8 8 9 9
1 1 0 0 0 2 2 2 4 4 2 1 1 1 1 2 2 2 2 2 2 1 2 1 4 4 1 2 4 3 3 4 4 2 2 2 2 2 2 4 4 4 3 4 3 2 5 4 3 8 11 9 7 7 8 10 10 9 8 7 5 5 4 4 3 1 1 2 3 9 14 13 11 11 10 10 10 10 9 9 8 7 9 10 9 9 10 10
2 1 2 2 1 1 1 1 4 6 4 3 2 2 2 2 2 2 1 1 2 2 2 1 4 5 3 2 3 4 4 4 3 1 2 2 2 1 2 4 3 4 2 4 3 2 4 4 5 9 11 11 9 7 8 11 12 12 12 10 8 9 10 10 8 5 5 5 7 15 16 10 7 9 10 10 10 9 9 9 8 8 10 10 9 10 10 9
1 1 2 2 1 1 1 0 3 4 3 3 3 2 2 2 1 1 1 1 2 4 2 4 3 6 7 6 6 4 1 2 5 5 3 3 3 1 1 2 2 3 3 3 2 1 2 4 5 4 7 9 8 8 10 11 13 14 13 10 9 9 10 10 9 7 7 9 13 17 15 9 6 8 11 10 9 9 9 9 8 9 10 10 10 10 10 8
3 4 3 2 2 1 1 0 2 3 1 2 3 2 2 2 1 0 1 1 0 3 3 3 5 6 8 9 10 6 3 2 7 6 3 3 4 2 1 1 1 2 3 3 1 2 3 6 4 1 4 4 4 7 8 7 11 13 12 11 9 7 6 7 7 5 4 11 16 13 10 7 7 9 11 10 9 10 9 9 9 9 9 10 10 10 9 8
5 4 3 2 2 1 1 0 1 2 1 2 3 3 1 1 1 1 1 2 2 4 3 1 3 5 6 9 9 5 4 5 10 8 6 8 9 7 5 6 5 3 3 3 2 2 3 7 5 1 4 4 3 2 2 0 5 6 6 7 6 6 7 8 8 8 4 9 11 7 6 8 9 10 10 9 10 9 8 8 8 8 9 9 10 9 8 8
Wind_Direction
331 329 328 326 323 326 325 321 321 321 323 324 321 322 324 325 324 325 325 325 326 328 327 328 329 330 330 328 332 326 321 320 314 312 273 255 259 251 254 264 246 188 183 163 153 142 127 142 140 142 148 144 174 159 165 174 156 184 186 197 204 199 214 194 192 189 196 338 324 339 2 342 333 58 113 67 77 93 94 71 63 59 60 86 118 134 144 153
331 329 328 327 325 325 326 324 320 315 316 322 324 319 320 323 323 324 324 324 325 324 326 327 327 330 329 329 331 322 320 319 310 287 263 261 267 263 257 250 244 201 179 169 166 155 142 154 150 148 148 152 171 147 172 177 180 196 153 200 215 196 220 204 197 203 255 316 322 327 349 339 320 21 215 242 115 129 115 87 81 78 83 107 127 141 149 156
331 329 329 329 328 325 324 322 318 317 313 315 321 318 316 319 320 322 322 322 323 323 326 325 325 329 327 329 328 320 321 321 302 272 271 275 267 259 254 246 238 206 194 188 178 174 168 161 153 148 135 158 152 152 177 175 186 196 170 218 221 200 252 239 215 235 243 295 314 324 332 329 316 299 301 165 151 177 170 134 119 112 122 133 142 150 155 162
330 329 328 329 328 326 325 322 319 319 314 311 317 320 316 315 317 317 320 321 321 322 324 323 326 326 327 329 322 318 321 310 265 255 283 314 279 265 246 238 228 207 202 192 180 185 174 154 151 149 140 159 139 161 178 186 181 173 197 226 210 161 250 235 213 241 244 269 297 322 317 325 337 305 259 179 149 173 201 169 149 154 152 150 157 161 163 168
326 325 327 328 327 326 322 319 317 317 315 311 312 318 316 315 316 315 317 319 319 322 322 323 324 325 328 326 318 320 317 281 282 145 107 74 20 4 286 229 216 202 191 180 168 166 160 147 146 143 145 162 156 170 190 194 168 169 202 236 220 177 247 250 217 237 155 151 262 313 309 324 324 290 232 205 124 104 197 267 157 157 159 161 164 166 169 172
326 326 327 327 329 327 321 313 309 310 312 311 310 312 312 312 314 315 315 316 319 318 321 322 322 327 326 324 325 322 257 259 344 115 125 360 344 352 343 223 202 190 179 170 152 145 145 144 160 166 170 168 172 186 188 177 181 207 199 232 236 218 242 266 285 225 130 273 291 298 302 334 317 324 221 263 27 68 278 233 157 154 162 163 162 167 173 172
331 330 328 328 328 323 318 312 308 307 308 308 310 311 310 311 311 313 313 313 316 314 319 321 321 328 324 327 332 339 123 270 270 219 252 309 313 328 330 213 189 178 172 162 146 149 145 154 179 169 167 167 180 200 182 153 186 227 218 227 238 222 237 260 285 261 241 273 272 267 293 288 273 328 345 243 61 2 263 168 147 149 159 160 165 171 172 168
332 331 329 328 322 316 312 310 310 308 307 306 307 309 309 308 307 309 310 310 312 311 316 317 322 327 322 335 345 230 194 252 259 261 287 297 299 307 289 188 179 173 171 166 158 159 147 161 178 156 180 187 182 194 171 156 180 219 223 228 245 229 233 255 273 272 276 266 253 243 256 203 218 253 105 45 63 97 132 137 141 147 157 166 174 169 164 160
330 331 331 327 319 316 313 311 311 306 305 305 303 306 306 306 306 306 307 307 309 309 311 313 319 321 318 339 83 263 241 250 268 283 292 287 288 281 230 185 180 176 174 174 165 157 156 173 180 176 193 181 177 183 174 191 191 205 210 215 249 250 269 294 280 279 293 262 229 245 254 134 186 196 129 46 73 131 133 137 145 151 164 174 173 163 158 157
328 326 327 324 319 318 316 313 313 308 306 305 302 304 304 304 301 302 305 304 305 305 305 308 308 312 317 322 174 249 252 272 290 297 299 289 275 228 205 190 180 177 171 170 167 165 176 181 172 176 173 148 176 171 173 198 171 177 194 216 244 261 322 296 282 281 294 270 226 243 276 97 153 202 156 76 126 148 137 141 152 161 176 173 159 155 157 162
324 322 323 319 315 316 316 311 308 308 306 305 304 301 300 301 299 299 301 299 300 300 299 297 299 302 296 261 196 231 245 321 317 351 18 340 249 200 199 190 177 175 167 164 177 179 179 161 153 150 162 162 167 156 184 196 152 160 172 211 243 270 287 247 269 272 269 272 215 211 257 117 133 192 157 140 155 155 143 148 159 174 182 162 148 147 157 169
321 320 319 316 311 309 313 315 310 309 304 301 302 300 298 297 297 296 295 296 294 294 293 287 291 278 255 245 233 233 234 289 78 78 52 35 223 203 206 188 176 175 170 166 186 184 169 158 162 154 153 155 149 153 200 183 157 157 161 221 236 277 255 227 250 255 202 249 167 170 228 256 150 177 131 146 161 153 148 155 164 182 176 149 151 144 157 173
320 318 319 316 311 305 309 311 309 313 306 299 301 302 298 294 294 293 290 290 287 287 286 281 276 249 233 236 243 244 247 250 255 262 265 308 245 235 218 183 174 178 178 175 179 177 169 174 177 153 142 163 150 146 142 144 152 149 149 240 243 255 242 213 185 162 190 227 174 192 216 114 220 264 49 129 169 152 150 168 177 187 166 148 158 146 157 175
318 319 318 312 311 309 308 304 303 310 310 305 302 299 297 295 292 288 285 283 280 280 276 265 245 227 218 250 262 265 259 257 261 255 252 258 248 243 210 181 177 179 179 174 172 177 175 173 174 139 156 198 137 145 102 93 142 153 145 182 249 224 210 136 84 168 186 165 214 225 222 84 26 9 7 2 182 162 156 177 186 184 160 153 163 151 159 177
317 316 311 307 310 314 315 310 310 312 310 307 302 299 297 293 290 285 281 275 269 268 259 236 213 208 242 270 275 279 250 251 254 246 246 248 222 210 199 185 189 188 162 131 156 184 190 165 160 162 172 206 133 184 157 99 47 127 170 170 145 207 213 15 120 184 197 91 130 233 210 105 44 14 1 23 174 175 143 180 192 180 159 158 168 158 159 169
315 309 306 307 311 315 317 312 307 309 311 307 303 302 297 292 289 283 273 263 257 237 212 204 198 198 266 279 280 268 218 225 242 247 243 232 213 194 180 175 186 191 172 146 136 173 188 177 162 162 144 153 173 172 147 157 139 82 213 171 144 196 207 51 118 197 261 120 150 252 214 104 44 3 4 33 123 133 85 155 178 178 167 169 176 173 163 154
313 308 310 313 315 316 316 308 301 305 314 310 306 304 302 300 292 281 261 237 223 191 184 186 180 194 257 274 273 254 232 220 232 255 237 221 212 183 161 150 160 162 158 168 144 134 162 178 185 141 124 141 161 172 176 187 175 141 196 151 132 198 186 163 141 72 324 169 175 208 64 71 32 4 15 19 21 127 98 132 152 159 163 178 190 202 187 156
312 312 313 315 318 319 319 315 311 313 315 311 309 307 308 317 309 252 167 162 152 156 186 215 173 194 253 261 261 261 277 260 239 239 214 201 196 181 163 143 132 135 130 142 160 162 162 181 207 160 162 169 171 187 187 180 164 157 171 161 128 172 182 200 163 87 346 139 157 151 74 47 27 21 25 14 15 67 61 86 152 157 161 176 192 211 203 176
314 315 317 318 319 319 318 316 313 314 313 310 315 315 313 82 86 103 130 149 145 145 197 194 184 198 317 233 235 322 310 291 251 212 181 172 178 172 152 137 131 136 148 153 164 179 163 152 184 183 182 175 175 186 181 164 160 159 167 163 139 148 187 236 187 285 18 78 78 100 90 51 28 20 18 13 22 47 47 37 87 154 171 182 195 215 203 182
314 316 316 315 313 313 313 313 310 314 315 313 322 329 159 144 116 113 139 191 215 248 313 185 199 246 332 183 26 359 335 271 239 194 174 168 163 153 136 131 129 142 162 158 156 168 174 174 184 185 176 168 169 174 161 142 141 132 128 135 130 147 181 217 190 315 349 82 54 80 89 60 36 26 18 22 34 39 37 29 29 37 176 198 213 222 168 151
315 314 309 308 311 310 310 311 308 311 313 312 317 321 248 235 223 135 187 229 238 248 264 219 205 240 265 253 10 14 4 299 325 200 178 171 159 156 157 144 147 165 170 149 132 132 187 189 184 174 165 161 164 158 131 117 119 114 119 124 128 170 178 152 68 341 302 111 92 97 87 64 44 42 34 39 46 42 33 28 28 24 24 2 257 107 101 118
315 314 311 312 315 312 309 307 306 307 305 303 297 272 263 226 130 59 296 254 247 232 241 236 216 245 256 260 291 357 351 280 299 290 169 170 172 171 161 155 164 160 153 146 129 144 188 194 179 162 146 117 115 146 130 122 125 115 122 134 147 174 189 98 55 357 13 107 143 124 88 73 57 55 48 46 51 50 43 42 40 36 38 30 12 15 36 113
315 314 312 311 311 310 309 304 304 305 298 289 259 232 220 165 131 352 310 267 279 223 220 223 218 236 244 255 260 223 233 238 251 282 166 170 185 175 152 159 168 147 156 173 162 162 180 190 170 150 139 116 108 149 129 115 120 123 150 168 152 156 194 153 84 349 15 88 152 134 97 79 65 61 54 48 51 53 51 55 53 49 49 43 38 31 22 18
315 314 312 310 310 312 311 305 302 298 288 272 252 239 211 169 333 330 274 238 283 235 208 205 205 223 226 232 207 185 206 213 210 232 174 174 172 157 159 154 153 152 173 178 165 161 163 156 143 137 147 137 129 148 140 135 153 172 196 187 159 176 212 146 117 130 58 72 149 130 105 72 37 43 51 44 49 52 49 56 53 49 49 47 47 41 35 34
315 312 312 311 311 312 311 306 300 289 292 277 263 250 207 307 337 317 227 266 269 247 209 192 192 219 209 194 171 170 191 207 213 210 175 179 167 143 155 150 157 170 175 168 159 163 157 132 139 142 150 141 134 153 168 159 158 191 216 207 194 185 191 122 125 145 118 129 210 97 112 93 24 35 51 44 47 50 48 53 52 49 48 44 44 40 38 45
314 311 312 314 312 314 313 303 278 305 303 274 244 170 150 338 338 246 217 296 255 219 165 165 186 192 177 167 160 155 168 209 215 201 181 184 178 149 149 155 167 169 165 159 160 168 138 139 156 154 149 147 144 160 187 173 162 187 202 195 194 179 179 149 144 160 140 148 168 1 144 133 82 36 44 47 57 53 49 54 53 52 52 47 47 46 41 41
312 311 312 312 310 314 313 290 295 307 293 235 186 186 284 331 327 203 210 301 252 184 142 151 208 178 169 167 160 153 175 162 158 187 187 183 183 157 160 169 150 157 163 158 169 172 129 143 164 154 146 150 157 166 183 179 170 179 181 169 172 187 198 175 157 169 145 128 106 51 312 126 124 46 36 50 62 53 47 51 50 51 53 51 51 50 48 46
309 312 312 309 305 300 290 287 297 289 252 218 226 257 313 327 288 187 261 281 245 305 142 165 189 164 151 160 164 165 192 139 137 175 181 180 184 126 162 178 162 157 176 180 171 147 135 161 168 155 151 162 174 167 164 173 182 195 160 156 167 187 187 171 159 147 132 174 141 91 350 124 128 24 33 58 61 50 44 49 50 50 52 53 54 52 53 54
309 312 307 303 298 288 284 284 274 259 258 266 277 304 321 318 196 187 311 194 253 289 135 139 152 150 129 156 179 198 139 147 165 148 156 178 195 115 154 176 157 151 168 199 170 138 168 184 169 159 163 178 182 161 163 176 191 159 134 119 107 92 83 108 163 141 158 193 156 106 332 151 134 9 20 55 55 46 44 54 56 52 50 51 51 49 49 53
308 309 305 303 297 290 292 280 264 264 274 283 303 318 324 242 183 211 220 219 279 310 110 147 164 147 144 153 185 212 168 142 127 120 130 169 182 85 100 108 129 144 136 130 153 126 107 163 162 167 170 169 157 132 162 177 154 139 135 111 101 91 64 77 73 108 181 174 139 58 316 236 146 305 347 42 52 51 59 70 65 57 53 50 48 46 43 44
305 304 303 300 293 291 296 282 272 264 249 302 321 327 322 168 208 212 190 179 204 341 21 152 145 143 157 160 170 195 185 109 136 141 145 161 153 129 134 133 120 136 141 158 160 108 81 132 162 192 157 130 123 108 93 132 139 152 142 127 131 112 88 147 100 228 195 166 125 73 299 273 152 174 169 88 88 94 77 76 74 65 60 55 52 50 43 41
300 298 295 289 284 277 263 255 258 210 273 311 325 321 185 183 237 214 237 311 160 316 357 54 132 153 169 172 160 171 169 141 154 153 152 164 163 156 163 165 156 154 169 176 166 145 141 157 186 183 154 147 136 127 104 118 179 198 149 153 165 154 158 178 184 197 188 148 104 282 280 44 87 117 133 116 107 95 78 76 78 71 64 60 54 50 44 41
301 301 293 285 280 271 260 258 263 268 286 312 321 242 188 209 219 215 250 309 349 276 346 351 315 169 172 185 165 164 158 146 167 159 150 159 162 160 175 168 153 153 168 167 157 165 179 224 234 167 168 174 156 153 157 163 186 190 170 171 176 167 164 169 171 177 158 120 88 302 275 121 115 132 132 127 110 87 80 77 78 74 66 60 53 48 46 41
305 302 296 289 282 274 266 263 264 266 283 309 294 196 181 201 236 221 230 319 350 297 314 329 321 192 176 191 161 158 152 128 163 157 147 155 162 166 174 176 162 113 117 152 159 177 182 212 197 174 168 168 167 171 159 150 166 179 168 175 173 170 169 163 163 158 139 122 72 351 355 132 136 138 134 130 109 90 88 82 77 73 65 60 55 47 43 42
307 302 298 291 281 275 267 257 249 240 239 274 216 177 193 210 256 331 242 348 0 332 317 313 309 233 185 200 155 163 175 118 155 151 152 162 163 164 163 175 184 132 138 164 168 174 180 205 190 161 143 163 166 168 138 141 158 180 129 154 180 174 134 109 82 81 111 115 64 23 52 79 105 128 149 137 114 104 101 89 77 70 59 52 50 41 37 37
309 306 301 286 274 275 269 231 203 183 171 195 179 187 221 230 239 102 19 350 28 337 315 309 293 202 178 172 165 177 201 81 149 151 153 162 158 162 166 171 181 173 161 163 157 154 163 175 169 124 157 176 163 147 147 159 154 145 175 179 172 108 107 120 110 34 69 134 99 23 115 115 115 151 175 150 123 117 108 89 78 72 63 55 49 41 34 33
311 309 298 278 273 276 259 178 165 158 156 199 193 201 222 230 211 150 92 343 354 298 302 316 293 194 177 159 166 179 166 106 154 173 145 159 162 165 176 176 174 183 183 170 174 210 176 144 150 182 176 202 129 121 115 64 138 145 178 169 129 76 81 115 130 104 107 129 108 206 160 158 160 161 171 155 130 124 114 98 88 74 67 65 57 49 43 39
308 303 289 280 279 268 209 163 152 146 151 215 207 214 209 212 203 121 86 326 319 288 285 292 281 259 168 158 158 172 163 143 173 177 145 172 200 161 171 174 180 195 199 192 168 214 188 119 69 253 161 116 100 126 114 56 10 139 157 148 131 165 167 150 139 148 144 115 116 160 174 195 200 175 176 164 138 130 119 101 92 77 71 72 61 51 45 40
301 292 291 298 290 221 173 155 148 142 187 206 207 216 211 222 211 98 66 285 292 287 276 253 247 266 184 172 153 160 160 150 162 162 154 190 198 158 178 166 184 205 207 197 161 128 337 132 134 306 38 121 144 167 160 153 74 61 132 142 28 199 165 151 116 136 142 131 138 147 176 219 208 170 183 170 144 134 121 103 94 83 77 75 65 54 44 38
293 281 308 50 126 172 156 149 149 159 191 196 199 217 251 248 162 129 232 257 266 261 264 265 261 265 245 188 159 154 126 136 154 161 169 178 123 152 234 210 181 191 187 142 153 131 30 126 130 87 275 168 157 195 193 161 142 145 152 150 130 91 116 121 82 42 122 142 148 145 179 219 132 141 185 167 144 132 123 114 110 96 84 76 68 64 55 47
289 271 103 89 150 153 147 148 180 181 183 200 192 219 262 280 157 209 242 251 251 243 260 275 276 270 258 185 160 151 104 117 149 148 145 178 160 158 219 226 181 166 140 118 163 165 114 100 124 121 138 158 122 344 264 187 146 152 160 162 147 127 136 148 140 79 82 128 146 153 179 181 80 73 169 146 131 126 121 119 116 107 94 82 72 70 66 56
264 231 82 142 156 151 149 177 165 160 195 179 212 234 257 267 202 228 254 260 254 239 252 265 260 249 234 199 158 133 107 91 109 133 138 165 177 165 163 177 200 165 154 158 169 165 135 91 99 96 93 96 27 16 12 96 91 92 103 146 144 132 153 170 173 157 114 103 123 138 169 132 86 72 108 114 115 117 118 118 118 115 99 85 75 69 67 60
243 346 56 150 158 152 240 217 138 267 225 214 296 273 224 237 220 217 252 253 244 232 233 245 238 218 215 204 149 129 121 80 40 102 117 112 138 164 175 183 190 166 153 160 157 156 147 79 95 102 88 70 70 71 55 55 84 84 62 45 62 116 129 143 151 144 138 141 140 146 166 137 102 89 99 107 108 107 111 116 118 116 101 87 77 66 63 58
293 313 65 151 169 218 319 181 156 232 214 265 314 273 248 244 216 231 244 235 226 237 249 243 224 214 226 195 129 135 134 94 40 70 91 101 139 106 1 202 187 163 145 181 170 158 176 8 110 127 116 97 112 135 129 72 69 81 67 33 15 84 106 104 101 115 138 167 173 167 165 140 119 114 108 109 109 106 108 114 116 114 107 94 79 65 60 56
298 296 65 154 199 281 321 176 135 177 196 287 310 273 268 241 223 230 236 240 237 234 290 272 253 218 211 131 104 87 72 94 107 96 92 112 106 36 18 146 191 179 105 101 98 104 104 37 27 147 143 141 144 147 151 129 94 72 60 30 27 66 111 116 120 144 164 167 190 189 150 128 125 125 119 115 114 110 110 111 110 109 107 96 81 67 59 54
283 138 95 175 217 273 290 259 258 152 159 176 220 262 224 216 267 232 216 238 242 199 189 262 269 226 135 107 99 71 38 55 98 123 153 146 108 13 359 66 105 108 100 86 69 84 103 63 32 60 90 108 114 87 7 92 119 108 70 30 28 12 326 85 132 163 155 146 184 214 140 143 151 144 132 125 119 114 113 112 110 108 103 93 83 73 64 56
279 163 158 174 199 247 263 270 261 231 183 178 192 280 212 221 292 259 191 211 222 180 188 245 296 43 113 121 111 76 33 53 81 111 136 93 103 91 4 52 78 82 90 77 41 71 109 77 45 61 65 59 71 82 69 76 90 95 80 46 34 13 330 106 125 132 131 141 185 180 147 151 157 149 135 128 120 113 111 109 109 109 102 93 84 74 66 56
259 292 239 243 226 208 213 241 225 223 244 218 213 308 239 224 272 269 235 238 242 176 168 258 346 12 43 130 119 108 99 83 59 88 130 113 125 116 43 55 37 12 66 68 22 74 100 83 79 86 76 63 68 81 86 88 87 80 71 59 48 43 51 85 84 38 119 147 160 152 149 145 141 135 125 119 117 113 112 111 110 107 97 88 79 72 66 54
250 283 301 305 293 233 199 168 188 204 231 237 241 269 236 230 251 254 277 304 308 341 101 91 347 11 32 43 101 121 142 127 104 175 176 126 126 116 92 95 46 8 59 75 53 78 87 91 123 110 82 60 59 77 92 97 94 77 62 59 67 73 77 86 88 68 58 74 117 132 128 109 105 117 110 108 111 109 109 106 101 96 86 81 76 69 63 54
261 311 310 301 295 269 273 59 156 181 216 222 236 259 219 214 250 263 295 331 316 326 56 107 66 51 59 61 77 93 182 159 126 147 179 147 127 123 111 126 97 49 55 65 68 35 77 129 154 127 81 56 53 81 96 99 96 80 61 53 65 78 77 77 80 70 72 97 116 120 113 96 96 109 107 110 111 104 101 96 88 84 80 79 77 68 60 53
307 292 291 281 287 234 212 279 145 170 202 195 219 249 216 200 222 20 331 347 3 345 17 104 97 63 55 58 61 45 332 56 89 100 128 119 105 104 68 75 138 117 71 65 58 20 77 138 174 182 92 74 66 92 91 92 96 82 57 38 38 57 73 73 67 54 104 131 127 123 124 128 128 118 109 105 100 96 93 89 83 77 75 77 74 66 58 49
326 306 315 291 265 249 204 197 135 179 202 184 216 247 259 248 261 108 69 11 31 41 27 20 86 75 59 58 51 358 325 90 94 92 96 90 82 79 79 71 61 70 103 106 69 27 105 139 160 157 102 127 180 132 31 305 129 93 38 9 21 65 91 85 64 48 79 136 136 130 133 132 132 125 112 102 97 91 83 81 80 76 75 75 71 66 59 49